Regional Weather Roundup
Issued by NWS Kansas City/Pleasant Hill, MO

Home | Current Version | Previous Version | Text Only | Print | Product List | Glossary On
Versions: 1 2 3 4 5 6 7 8 9 10 11 12 13 14 15 16 17 18 19 20 21 22 23 24 25 26 27 28 29 30 31 32 33 34 35 36 37 38 39 40 41 42 43 44 45 46 47 48 49
000
ASUS43 KEAX 281510
RWREAX

WEATHER ROUNDUP FOR EASTERN KANSAS AND NORTHWEST MISSOURI
NATIONAL WEATHER SERVICE KANSAS CITY/PLEASANT HILL MO
1000 AM CDT TUE JUL 28 2015

KSZ040-057-103>105-MOZ028-029-037-043-281600-
...KANSAS CITY METROPOLITAN AREA...

CITY           SKY/WX    TMP DP  RH WIND       PRES   REMARKS
K.C. INTL      MOSUNNY   86  75  69 S15       29.90S HX  95
K.C. DOWNTOWN  SUNNY     90  73  57 SW14G21   29.89S HX  98
LEES SUMMIT    SUNNY     87  72  60 SW15G22   29.93R HX  93
OLATHE - IXD   SUNNY     87  74  64 S10       29.93R HX  95
OLATHE - OJC   SUNNY     85  73  67 S16       29.92R HX  91
LAWRENCE       SUNNY     88  74  63 S15       29.90R HX  96

$$

MOZ001>008-011>017-020>025-030>033-038>040-044>046-053-054-281600-
...NORTHERN AND CENTRAL MISSOURI...

CITY           SKY/WX    TMP DP  RH WIND       PRES   REMARKS
ST. JOSEPH     SUNNY     85  76  74 S9        29.87S HX  94
MOSBY          SUNNY     88  73  62 S9        29.90S HX  96
WARRENSBURG    SUNNY     86  73  66 S10G17    29.93S HX  93
WHITEMAN AFB   MOSUNNY   89  75  63 SW15      29.93F HX  98
CLINTON        SUNNY     88  77  70 S7        29.96S HX 100
SEDALIA        SUNNY     88  76  67 SW13      29.96F HX  99
WARSAW         NOT AVBL
CHILLICOTHE      N/A     87  77  72 S9        29.93R HX  99
KIRKSVILLE     SUNNY     85  77  77 S6        29.96R HX  95

$$

MOZ041-047>049-056>058-063>065-088>090-097-281600-
...EASTERN AND SOUTHERN MISSOURI...

CITY           SKY/WX    TMP DP  RH WIND       PRES   REMARKS
ST. LOUIS INTL PTSUNNY   89  75  63 SW3       29.97S HX  99
SPIRIT OF STL  MOSUNNY   86  77  74 CALM      29.95S HX  97
COLUMBIA       SUNNY     86  78  77 SW7       29.96S HX  98
JEFFERSON CITY SUNNY     86  75  69 SW5       29.95S HX  95
ROLLA          SUNNY     85  76  74 SW8       29.99R HX  94
OSAGE BEACH    SUNNY     88  73  62 SW10      29.98S HX  96
SPRINGFIELD    SUNNY     87  73  62 SW9       30.01R HX  94
BRANSON        SUNNY     86  73  66 SW5       30.03R HX  93
JOPLIN         SUNNY     88  72  58 S13       29.98R HX  94
WEST PLAINS    SUNNY     86  73  65 SW7       30.04R HX  93

$$

IAZ060-094-KSZ022-034>040-054-083-096-NEZ052-066-093-281600-
...KANSAS...SOUTHEAST NEBRASKA AND IOWA...

CITY           SKY/WX    TMP DP  RH WIND       PRES   REMARKS
TOPEKA         SUNNY     87  73  62 S8        29.88R HX  94
MANHATTAN      SUNNY     88  70  55 S13       29.84S HX  93
EMPORIA        SUNNY     90  69  50 S16G25    29.89S HX  94
CHANUTE        SUNNY     87  72  60 S14       29.93R HX  93
WICHITA        MOSUNNY   87  68  52 S17       29.87F HX  90
OMAHA          CLOUDY    73  70  90 E15G24    29.86F
LINCOLN        MOSUNNY   82  75  79 E13       29.85S
FALLS CITY     MOSUNNY   85  74  69 S10       29.86R HX  92
LAMONI         MOSUNNY   83  75  77 S9        29.91S HX  90
DES MOINES     CLOUDY    76  71  85 N7        29.94F

$$




USA.gov is the U.S. government's official web portal to all federal, state and local government web resources and services.